Back to catalog

STARLINK-1270

AliveCommunicationsVLEO
NORAD 45237·PAYLOAD·🇺🇸 United States

Launched Feb 17, 2020 from Cape Canaveral Space Force Station

Loading…

Next Passes (next 24 hours)

TLE

FreshSource: CelesTrak SupGP

Epoch: Sep 15, 2026, 01:20 UTC

1 45237C 20012BM  26258.05604167  .00127810  00000+0  62994-3 0  2587
2 45237  53.0347 138.6795 0004794 117.3736 252.3576 15.81339453    19

Track STARLINK-1270 in real time with AllMySat

Download on the App Store